Regional Weather Roundup
Issued by NWS

Home | Current Version | Previous Version | Text Only | Print | Product List | Glossary Off
Versions: 1 2 3 4 5 6 7 8 9 10 11 12 13 14 15 16 17 18 19 20 21 22 23 24 25 26 27 28 29 30 31 32 33 34 35 36 37 38 39 40 41 42 43 44 45 46 47 48 49 50

000
ASUS43 KLOT 242108
RWRIL

ILLINOIS REGIONAL WEATHER ROUNDUP
NATIONAL WEATHER SERVICE CHICAGO/ROMEOVILLE IL
300 PM CST SAT FEB 24 2018

NOTE: "FAIR" INDICATES FEW OR NO CLOUDS BELOW 12,000 FEET WITH NO
SIGNIFICANT WEATHER AND/OR OBSTRUCTIONS TO VISIBILITY.

* THESE STATIONS ARE NOT UNDER NWS QUALITY CONTROL. THEY ALSO MAY NOT
  REPORT WEATHER SUCH AS PRECIPITATION OR FOG.

ILZ001-002-007-009-015-016-024-242200-
NORTHWEST ILLINOIS

CITY           SKY/WX    TMP DP  RH WIND       PRES   REMARKS
MOLINE         LGT RAIN  39  38  96 E18       29.76F FOG     WCI  30
STERLING*      CLOUDY    39  37  92 MISG        N/A  FOG
SAVANNA*       CLOUDY    37  35  94 E10       29.81F FOG     WCI  29
$$

ILZ003-004-008-010-011-017-018-242200-
NORTH CENTRAL ILLINOIS

CITY           SKY/WX    TMP DP  RH WIND       PRES   REMARKS
ROCKFORD       CLOUDY    38  33  82 E12       29.89F WCI  30
FREEPORT*      CLOUDY    37  33  87 E12       29.87F WCI  29
ROCHELLE*      CLOUDY    38  36  91 E14       29.86F FOG     WCI  30
DE KALB*       CLOUDY    39  35  86 E16       29.88S WCI  30
PERU*          CLOUDY    40  38  95 E12G21    29.85F FOG
$$

ILZ005-006-012>014-019>023-242200-
NORTHEAST ILLINOIS

CITY           SKY/WX    TMP DP  RH WIND       PRES   REMARKS
CHICAGO-OHARE  CLOUDY    40  33  76 E10       29.90F
CHICAGO-MIDWAY CLOUDY    41  35  79 E12       29.90F
AURORA         CLOUDY    42  35  76 E15       29.88F
LANSING*       CLOUDY    43  40  89 E10       29.91F
JOLIET*        CLOUDY    45  39  81 E8        29.89R
WAUKEGAN       CLOUDY    36  33  89 E13       29.92F FOG     WCI  27
DUPAGE AIRPORT CLOUDY    40  35  83 E14G20    29.89F HAZE
KANKAKEE*      CLOUDY    45  43  93 E9        29.89S
WHEELING       CLOUDY    39  34  82 E10       29.93F WCI  32
MORRIS*        LGT RAIN  42  39  89 E12       29.88R
ROMEOVILLE*    CLOUDY    41  37  83 E9        29.89S
NORTHERLY ISL    N/A     35  33  92 NE12        N/A  WCI  27
$$

LMZ740>746-242200-
SOUTHERN LAKE MICHIGAN

STATION/POSITION SKY/WX   TEMP    WIND        PRES    VSBY  WAVE
                          AIR SEA DIR/SP/G                  HT/PER
                          (F)     (DEG/KT/KT) (MB)    (MI)  (FT/S)
HARRISON CRIB              36      80/ 16/ 17   N/A
BURNHAM HARBOR             36      60/ 10/ 12   N/A
CALUMET HARBOR             36      50/ 11/ 13 1012.6F
BURNS HARBOR               42     100/ 12/ 16 1014.2F
MICHIGAN CITY              41     100/  8/ 10   N/A
$$

ILZ025>027-034>036-040-047-049-050-058-095>099-242200-
WEST-CENTRAL ILLINOIS

CITY           SKY/WX    TMP DP  RH WIND       PRES   REMARKS
QUINCY         FOG       42  42 100 SE13      29.73F VSB 3/4
GALESBURG*     CLOUDY    41  41 100 E16       29.77F
MACOMB*        CLOUDY   N/A N/A N/A E14       29.77F FOG
JACKSONVILLE*  FOG       45  44  99 SE10      29.78F VSB 1/4
PITTSFIELD*    FOG       44  44 100 SE7       29.78S VSB 1/4
$$

ILZ028>032-037-038-041>044-048-051>054-059>061-242200-
CENTRAL ILLINOIS

CITY           SKY/WX    TMP DP  RH WIND       PRES   REMARKS
PONTIAC        DRIZZLE   44  43  99 E12       29.87F
BLOOMINGTON    LGT RAIN  44  44 100 E16       29.84F FOG
DECATUR        CLOUDY    49  48  97 E13       29.82F
PEORIA         CLOUDY    43  42  97 E10       29.80F
LACON*         DRIZZLE   41  41 100 E13       29.81F
LINCOLN*       CLOUDY    46  46 100 E12       29.81F
SPRINGFIELD    FOG       47  46  97 SE14      29.80F VSB 1/2
TAYLORVILLE    FOG       47  47 100 E10G16    29.80F VSB 1/2
$$

ILZ033-039-045-046-055>057-062-063-242200-
EAST-CENTRAL ILLINOIS

CITY           SKY/WX    TMP DP  RH WIND       PRES   REMARKS
CHAMPAIGN      CLOUDY    49  48  97 SE12      29.87S
DANVILLE*      CLOUDY    48  46  94 SE14      29.86R
RANTOUL*       RAIN      48  48  99 SE9       29.88R
MATTOON        CLOUDY    50  49  96 SE13      29.83F
PARIS*         CLOUDY    51  49  94 SE8       29.88S
$$

ILZ079-100>102-242200-
SOUTHWEST ILLINOIS

CITY           SKY/WX    TMP DP  RH WIND       PRES   REMARKS
BELLEVILLE     HVY RAIN  54  52  95 SW5       29.78F FOG
CAHOKIA*       HVY RAIN  53  52  96 CALM      29.80R FOG
SPARTA*        HVY RAIN  52  52 100 E6        29.78F
$$

ILZ064>066-069>071-074>076-080>082-084>086-088>090-092>094-242200-
SOUTH-CENTRAL ILLINOIS

CITY           SKY/WX    TMP DP  RH WIND       PRES   REMARKS
CARBONDALE     HVY RAIN  52  52 100 E6        29.78F VSB 1
CAIRO*         RAIN      55  55 100 E3        29.79R
EFFINGHAM*     CLOUDY    54  54 100 E8        29.83F FOG
MARION         HVY RAIN  52  52 100 CALM      29.81F
MT. VERNON     LGT RAIN  54  53  97 NE9       29.78F
CENTRALIA*     RAIN      55  55 100 SE8       29.79F
SALEM*         CLOUDY    55  53  93 SE7       29.80F FOG
METROPOLIS*    HVY RAIN  57  56  97 S7        29.83F
$$

ILZ067-068-072-073-078-083-087-091-242200-
SOUTHEAST ILLINOIS

CITY           SKY/WX    TMP DP  RH WIND       PRES   REMARKS
LAWRENCEVILLE  CLOUDY    55  54  96 SE7       29.86F FOG
FLORA*         CLOUDY    56  55  95 E7        29.83F FOG
FAIRFIELD*     CLOUDY    55  55 100 MISG      29.81F
HARRISBURG*    RAIN      53  53 100 E10       29.81F
ROBINSON*      CLOUDY    53  52  95 E7        29.86F
CARMI*         CLOUDY    54  54  99 SE10      29.82F
$$

ABBREVIATIONS USED IN REMARKS
   TC - TEMPERATURE IN CELSIUS
  WCI - WIND CHILL INDEX
   HX - HEAT INDEX
  VSB - VISIBILITY
$$





USA.gov is the U.S. government's official web portal to all federal, state and local government web resources and services.